Hourly Data Report for July 29, 2013

All times are specified in Local Standard Time (LST). Add 1 hour to adjust for Daylight Saving Time where and when it is observed.

VICTORIA INTL A
BRITISH COLUMBIA

48°38'50.000" N
123°25'33.000" W
19.50 m
1018621
71799
YYJ

Download Data

Hourly Data (July 2013)
Hourly Data Report for July 29, 2013
Temp Definition
°C
Dew Point Temp Definition
°C
Rel Hum Definition
%
Wind Dir Definition
10's deg

Wind Spd Definition
km/h
Visibility Definition
km
Stn Press Definition
kPa
Hmdx Definition


Wind Chill Definition


Weather Definition


TIME
00:00 Legend Double Dagger 12.7 11.1 90 2 2 48.3 101.22     LegendNANA
01:00 Legend Double Dagger 12.7 11.1 90 10 4 48.3 101.23     Mainly Clear
02:00 Legend Double Dagger 12.2 11.0 92 4 6 48.3 101.24     LegendNANA
03:00 Legend Double Dagger 11.3 9.9 91 13 1 48.3 101.25     LegendNANA
04:00 Legend Double Dagger 10.7 9.9 95 29 3 48.3 101.30     Mainly Clear
05:00 Legend Double Dagger 10.6 10.2 97 27 1 48.3 101.31     LegendNANA
06:00 Legend Double Dagger 12.7 11.3 91 8 11 48.3 101.34     LegendNANA
07:00 Legend Double Dagger 13.2 11.1 87 11 9 48.3 101.38     Clear
08:00 Legend Double Dagger 12.6 10.9 89 14 14 19.3 101.42     LegendNANA
09:00 Legend Double Dagger 13.2 10.8 85 14 18 32.2 101.41     LegendNANA
10:00 Legend Double Dagger 14.1 10.9 81 11 14 32.2 101.40     Mainly Clear
11:00 Legend Double Dagger 15.3 11.5 78 13 21 32.2 101.39     LegendNANA
12:00 Legend Double Dagger 15.7 11.5 76 12 17 32.2 101.36     LegendNANA
13:00 Legend Double Dagger 15.5 11.5 77 13 18 32.2 101.34     Clear
14:00 Legend Double Dagger 17.1 11.7 70 12 15 32.2 101.28     LegendNANA
15:00 Legend Double Dagger 18.2 11.8 66 11 15 32.2 101.25     LegendNANA
16:00 Legend Double Dagger 17.6 11.7 68 13 23 32.2 101.20     Clear
17:00 Legend Double Dagger 17.7 11.8 68 12 22 32.2 101.17     LegendNANA
18:00 Legend Double Dagger 17.4 11.7 69 12 17 48.3 101.15     LegendNANA
19:00 Legend Double Dagger 15.1 11.7 80 10 15 48.3 101.16     Clear
20:00 Legend Double Dagger 13.6 11.5 87 11 7 48.3 101.18     LegendNANA
21:00 Legend Double Dagger 13.8 11.5 86 13 11 48.3 101.25     LegendNANA
22:00 Legend Double Dagger 13.0 11.3 89 13 5 48.3 101.28     Clear
23:00 Legend Double Dagger 12.6 11.4 92 11 5 48.3 101.33     LegendNANA

Notes on Data Quality.

Legend

  • E = Estimated
  • M = Missing
  • NA = Not Available
  • ‡ = Partner data that is not subject to review by the National Climate Archives
Date modified: